Flag for Norway Weather past 2 weeks in Tønsberg, Norway

Now
45 °F

Partly sunny.


Feels Like: 35 °F
Forecast: 19 / 22 °F
Wind: 31 mph from Northwest

Location: Oseberg

Current Time: Dec 29, 2014 at 10:01:59 AM

Latest Report: Dec 29, 2014 at 9:20 AM


Visibility: N/A

Pressure: 30.33 "Hg

Humidity: 76%

Dew point: 37 °F

Location of TønsbergLocation

Historic Weather in Tønsberg — Graph

°F

Tønsberg temperature yesterday

Maximum temperature yesterday: 43 °F (at 6:50 AM)
Minimum temperature yesterday: 37 °F (at 2:50 AM)
Average temperature yesterday: 41 °F

Past Weeks' High & Low Weather Summary

 TemperatureHumidityPressure
High48 °F (Dec 21, 3:03 PM)100% (Dec 15, 4:20 PM)30.36 "Hg (Dec 15, 4:20 PM)
Low32 °F (Dec 15, 3:50 PM)36% (Dec 15, 12:50 PM)28.88 "Hg (Dec 14, 5:50 PM)
Average42 °F74%29.45 "Hg
* Reported Dec 14 8:20 AM — Dec 29 8:50 AM, Tønsberg, Weather by CustomWeather, © 2014

Note: Actual official high and low records may vary slightly from our data, if they occured in-between our weather recording intervals... More about our weather records

Advertising

Tønsberg weather history for previous 24 hours

 ConditionsComfort  
Time TempWeatherWind HumidityBarometerVisibility
8:50 AM
Dec 29
45 °FPassing clouds.23 mph81%30.33 "HgN/A
7:50 AM45 °FPartly cloudy.30 mph76%30.33 "HgN/A
7:20 AM45 °FPartly cloudy.31 mph76%30.33 "HgN/A
6:50 AM45 °FPartly cloudy.32 mph71%30.33 "HgN/A
6:20 AM43 °FSprinkles. Passing clouds.28 mph81%30.30 "HgN/A
5:50 AM43 °FSprinkles. Passing clouds.30 mph81%30.30 "HgN/A
4:50 AM43 °FPassing clouds.28 mph76%30.33 "HgN/A
3:50 AM43 °FSprinkles. Passing clouds.30 mph71%30.33 "HgN/A
2:50 AM43 °FLight rain. Passing clouds.29 mph71%30.33 "HgN/A
1:50 AM41 °FPassing clouds.25 mph76%30.33 "HgN/A
1:20 AM41 °FPassing clouds.23 mph70%30.36 "HgN/A
12:50 AM41 °FPassing clouds.26 mph76%30.33 "HgN/A
12:20 AM41 °FPassing clouds.23 mph76%30.36 "HgN/A
11:20 PM
Dec 28
41 °FPassing clouds.18 mph66%30.36 "HgN/A
10:50 PM41 °FPassing clouds.23 mph61%30.36 "HgN/A
10:20 PM41 °FPassing clouds.23 mph57%30.36 "HgN/A
9:50 PM41 °FPassing clouds.23 mph53%30.36 "HgN/A
8:50 PM41 °FPassing clouds.25 mph57%30.36 "HgN/A
8:20 PM41 °FPassing clouds.25 mph57%30.36 "HgN/A
7:50 PM41 °FPassing clouds.25 mph53%30.36 "HgN/A
6:50 PM39 °FPassing clouds.22 mph75%30.33 "HgN/A
6:20 PM37 °FPassing clouds.24 mph75%30.33 "HgN/A
5:50 PM39 °FPassing clouds.22 mph70%30.30 "HgN/A
4:50 PM41 °FPassing clouds.28 mph57%30.30 "HgN/A
4:20 PM41 °FPassing clouds.25 mph53%30.30 "HgN/A
3:50 PM41 °FPassing clouds.30 mph61%30.27 "HgN/A
2:50 PM41 °FPartly sunny.30 mph61%30.27 "HgN/A
1:50 PM41 °FScattered clouds.30 mph70%30.24 "HgN/A
12:50 PM41 °FPartly sunny.32 mph70%30.24 "HgN/A
11:50 AM41 °FPartly sunny.35 mph70%30.21 "HgN/A
10:50 AM41 °FPartly sunny.36 mph70%30.18 "HgN/A
Weather by CustomWeather, © 2014

See weather overviewHow to use our weather pages